Location: Boston
(42.3580°N, 71.0600°W)
Time: 07:51:46
(UTC-05:00)

ISS - Visible Passes

Search period start: 03 December 2022 00:00
Search period end: 13 December 2022 00:00
Orbit: 414 x 420 km, 51.6° (Epoch: 03 December)

Date Brightness Start Highest point End Pass type
(mag) Time Alt. Az. Time Alt. Az. Time Alt. Az.
03 Dec -3.5 18:06:18 10° NW 18:09:13 65° NW 18:09:13 65° NW visible
04 Dec -3.6 17:18:12 10° NW 17:21:30 53° NNE 17:23:38 19° ESE visible
04 Dec -0.7 18:55:31 10° W 18:56:37 16° W 18:56:37 16° W visible
05 Dec -2.2 18:06:57 10° WNW 18:10:01 33° SW 18:11:20 24° S visible
06 Dec -3.2 17:18:38 10° WNW 17:21:56 58° SW 17:25:12 10° SE visible
07 Dec -0.5 18:08:37 10° WSW 18:10:04 12° SW 18:11:31 10° SSW visible
08 Dec -1.0 17:19:27 10° W 17:22:03 21° SW 17:24:37 10° S visible
